Theta_e
290 290 291 291 292 293 293 294 293 294 294 295 295 295 295 296 296 295 297 298 296 295 296 294 292 292 292 291 290 291 291 291 291 291 291 291 291 292 292 292 292 292 291 291 290 290 289 289 288 289 289 289 289 288 288 288 289 290 289 289 288 288 287 287 287 289 289 287 288 288 289 290 290 288 287 287 286 286 287 287 287 286 285 285 285
289 289 290 290 291 292 292 293 293 292 293 294 293 294 294 294 294 294 296 296 296 297 297 297 297 295 292 290 290 290 290 289 289 290 290 291 290 290 290 291 291 291 291 290 289 289 288 288 288 288 288 288 288 289 288 289 287 287 288 287 288 286 285 286 286 287 287 285 284 285 286 287 289 287 286 286 285 285 285 286 286 286 286 285 285
288 289 289 290 290 291 291 292 292 293 293 293 293 293 293 293 293 294 295 295 295 296 295 294 295 293 292 291 289 288 289 289 288 289 289 288 289 290 289 289 290 289 290 290 289 288 288 287 287 287 288 288 286 286 286 286 286 287 287 287 287 287 286 286 286 286 285 286 286 284 282 282 287 285 286 285 285 284 284 284 285 285 285 285 285
288 288 288 289 289 290 290 291 291 292 292 292 292 292 292 292 293 293 293 294 294 295 295 294 294 293 293 289 289 288 287 288 288 288 287 287 287 288 288 288 288 288 289 289 288 288 287 287 287 287 286 287 286 286 285 285 286 287 288 288 289 284 284 284 286 285 285 285 284 284 283 283 281 281 282 284 284 283 283 283 283 283 284 284 284
287 288 288 289 288 289 289 290 291 290 291 291 292 292 292 292 293 293 293 293 294 294 293 293 292 291 290 290 290 289 289 288 287 286 287 287 286 286 286 288 288 287 288 288 288 287 287 287 286 286 286 286 286 285 285 285 286 286 287 287 285 285 284 283 284 285 284 285 285 281 280 282 281 281 282 283 284 282 282 282 284 282 283 283 283
288 287 287 288 288 289 289 290 289 290 290 291 292 292 292 292 293 293 292 293 292 292 292 292 290 289 288 287 286 286 285 286 286 285 285 285 285 287 287 288 287 287 287 287 287 287 286 286 286 286 286 286 286 285 285 285 285 285 286 285 285 286 285 283 282 285 284 285 284 284 281 278 280 280 279 279 283 282 282 281 281 281 281 282 282
288 288 287 287 288 288 289 289 289 289 289 291 291 291 292 292 292 293 292 292 292 291 292 292 291 290 291 290 289 287 286 287 288 288 286 287 288 287 288 289 289 289 289 287 286 287 286 286 286 286 286 286 286 285 284 284 285 285 286 285 284 285 285 283 282 282 283 283 283 283 282 281 281 279 277 277 275 279 280 280 280 281 281 282 282
288 287 287 287 288 288 288 289 289 289 289 290 290 290 290 291 291 292 292 292 292 292 293 292 291 291 291 290 290 288 286 285 286 286 286 286 285 286 287 288 288 288 288 287 287 287 287 286 286 286 286 285 285 284 284 284 285 285 285 285 285 284 283 282 281 281 280 280 283 281 281 281 280 279 279 276 276 275 275 278 279 280 280 281 281
288 287 287 287 287 287 288 288 289 289 289 289 289 289 290 290 290 291 291 291 292 292 292 292 292 291 290 289 288 288 287 287 288 288 287 287 286 287 286 285 285 285 285 285 285 286 286 286 286 285 285 285 285 284 284 284 284 284 284 284 283 284 284 283 281 280 280 280 280 280 280 279 279 278 278 279 277 274 274 274 275 278 279 279 280
287 287 287 287 287 287 288 288 288 288 288 289 289 289 289 289 289 290 290 290 291 291 291 291 291 291 289 288 287 286 286 287 287 286 286 286 284 285 284 284 285 285 285 285 285 286 285 286 286 286 285 285 285 284 284 284 284 284 284 283 283 283 283 283 281 281 281 280 280 280 278 277 277 276 276 276 276 275 273 274 275 275 274 277 280
287 286 286 286 287 287 287 287 287 287 287 288 287 288 288 288 288 288 288 289 290 290 290 290 291 290 289 288 287 286 286 285 284 284 284 284 284 284 284 283 284 283 284 284 285 285 285 285 285 285 285 285 284 284 284 284 284 283 283 283 283 282 282 281 282 281 281 280 280 279 278 277 276 275 275 275 275 274 274 274 274 276 275 275 278
286 286 285 285 284 285 285 285 285 286 286 286 286 287 287 287 288 287 288 289 290 290 290 290 289 289 288 287 286 286 285 284 283 282 283 283 282 282 283 283 283 284 284 285 285 285 285 285 285 284 283 283 283 283 283 283 283 283 283 282 282 282 282 282 281 280 280 279 279 279 278 278 277 276 277 277 276 276 275 274 275 275 275 276 279
286 285 285 284 284 283 284 284 285 284 284 284 285 285 286 286 287 286 287 288 288 289 289 288 288 287 287 287 286 286 285 284 283 283 284 283 283 283 283 283 284 283 284 284 285 285 285 283 283 282 282 283 283 283 283 283 283 283 282 282 281 281 281 280 279 279 279 278 278 278 278 277 277 277 277 277 277 277 276 274 275 276 274 275 277
286 286 285 284 284 284 284 284 284 283 283 283 283 284 284 285 285 285 285 286 287 288 288 287 287 287 287 286 286 286 285 285 284 284 284 284 284 283 283 283 283 283 283 283 284 284 283 283 282 282 282 283 283 283 283 283 282 282 281 281 280 280 280 280 279 279 279 279 279 278 277 277 277 277 277 277 276 275 274 274 274 275 275 274 276
286 286 285 284 284 283 283 284 283 283 282 282 283 283 283 283 284 284 284 285 286 286 287 286 286 286 286 286 287 287 286 286 286 286 285 284 284 284 284 284 283 283 283 283 284 282 282 281 281 281 281 281 282 282 282 282 282 282 282 281 281 280 280 280 279 279 279 278 278 278 278 277 277 278 277 277 277 276 276 275 274 272 273 275 274
286 286 285 284 284 283 283 284 283 283 282 282 282 283 283 283 283 284 284 284 285 285 285 285 285 286 287 287 287 287 287 286 286 286 285 285 284 284 283 283 283 283 284 283 283 282 281 281 281 280 281 281 281 281 281 281 281 280 280 280 280 281 279 279 279 279 278 278 278 278 277 277 278 278 278 277 277 277 276 276 275 274 272 270 273
286 286 285 284 284 283 283 284 283 283 281 281 282 282 282 283 283 283 283 284 284 284 284 284 284 285 285 285 285 285 285 284 284 284 284 285 284 284 283 284 284 283 283 283 281 281 281 280 280 280 280 280 280 280 280 280 280 280 279 279 279 280 280 278 279 278 278 278 278 278 277 277 277 277 277 277 277 276 276 276 276 274 274 271 270
287 286 285 284 283 283 283 284 283 282 281 281 282 282 282 283 283 282 282 282 283 283 283 284 284 284 284 284 284 284 284 284 284 284 284 283 283 283 282 282 282 282 282 281 280 280 280 280 279 279 279 279 279 279 279 279 279 279 279 279 279 279 279 279 279 278 278 278 278 277 277 276 277 276 276 276 276 275 275 275 275 275 274 272 271
286 285 284 284 283 282 282 283 283 282 282 282 282 282 282 282 282 282 282 282 283 283 284 284 285 284 285 284 284 284 284 284 284 283 283 282 281 281 281 281 281 281 281 280 279 279 279 278 278 278 278 278 278 278 279 279 279 278 278 278 278 278 277 277 278 278 277 277 276 275 275 275 275 275 275 275 275 275 274 274 274 274 274 273 272
285 285 285 284 283 282 282 282 282 281 281 281 281 282 281 282 282 282 283 283 283 283 284 283 284 284 284 284 283 283 283 283 283 282 281 280 280 280 280 280 280 280 279 279 279 278 278 277 277 277 277 277 277 278 278 278 277 277 277 277 277 277 276 276 276 276 277 276 275 275 275 275 275 275 274 274 274 275 274 274 274 274 273 273 273
285 285 284 283 283 282 282 282 282 282 282 281 281 281 281 281 281 282 282 282 283 283 283 283 283 283 283 282 282 282 282 282 281 281 280 280 280 280 280 280 280 279 279 278 278 277 277 277 277 277 277 277 277 277 277 277 277 276 276 276 276 276 275 275 276 275 276 275 275 275 275 275 275 274 274 274 274 274 273 273 274 273 272 273 272
285 285 284 283 282 282 282 282 282 282 281 281 281 281 281 281 282 282 283 282 282 282 283 283 283 282 281 281 281 281 281 281 280 280 280 280 280 280 279 279 278 278 278 278 277 277 277 276 276 276 276 276 276 276 276 276 276 276 276 277 276 275 275 275 275 274 275 276 275 274 274 275 275 274 274 273 273 273 273 272 273 273 272 272 273
284 284 283 283 282 282 282 282 281 281 281 281 281 281 281 281 282 282 282 282 282 282 283 282 282 281 281 281 281 280 280 280 279 279 279 279 279 279 279 278 278 278 278 277 277 276 276 276 275 275 275 275 276 276 276 276 276 276 276 276 276 275 275 275 275 274 275 275 274 274 274 274 275 273 273 273 273 273 273 272 272 273 272 272 272
283 283 283 282 282 282 282 282 281 281 281 280 281 281 281 281 282 282 281 282 282 282 282 281 280 280 280 279 279 279 279 279 278 279 278 278 278 279 279 278 277 277 277 277 276 275 275 275 275 274 274 275 275 275 275 275 275 275 275 275 275 275 275 275 274 274 274 274 273 273 274 274 274 273 273 272 273 272 272 273 272 272 272 272 272
282 282 282 282 281 281 281 282 281 281 281 281 281 281 281 281 281 281 281 282 281 281 281 280 279 278 278 278 278 278 277 277 277 277 277 277 277 277 278 277 277 277 276 276 275 275 274 274 274 274 274 274 274 275 275 275 275 275 275 275 274 274 274 274 274 275 276 274 274 273 273 273 273 272 273 272 272 272 273 272 272 272 272 273 273
282 282 281 281 281 281 281 281 281 281 281 281 281 281 281 281 281 282 281 281 281 281 280 279 278 278 277 277 277 277 277 277 277 277 276 276 276 277 277 277 276 276 275 275 274 274 274 274 273 273 273 273 274 274 274 274 274 274 274 274 274 274 274 274 274 274 274 275 274 273 273 273 273 272 273 273 272 272 272 272 272 272 272 273 272
282 282 281 281 280 280 280 281 281 281 281 281 281 281 281 281 281 281 281 281 280 280 280 279 279 278 277 277 277 277 277 277 276 276 276 276 276 275 275 275 275 275 274 274 274 274 274 273 273 273 273 273 274 274 274 274 274 274 273 273 273 273 273 274 273 273 274 273 273 273 273 273 272 273 272 272 272 272 273 273 273 272 272 271 271
282 281 281 280 280 280 280 280 280 281 281 281 281 281 281 281 281 281 281 280 280 280 279 279 278 278 277 277 277 277 277 276 276 276 276 275 275 275 275 274 274 274 274 274 274 274 273 273 273 273 273 273 274 274 274 274 274 274 274 273 273 273 273 273 273 273 273 273 273 273 273 273 273 273 273 273 273 272 273 273 273 272 272 272 272
281 281 281 280 280 280 280 280 280 280 280 280 281 281 281 281 281 281 280 280 280 279 279 278 278 277 277 277 277 277 277 276 276 275 275 275 275 274 274 274 274 274 274 274 274 273 273 272 272 272 273 273 274 274 274 274 273 273 273 273 273 273 273 273 273 273 273 273 273 273 273 273 275 276 276 276 276 276 274 271 272 273 273 272 272
281 281 280 280 280 280 280 280 280 280 280 280 280 281 281 281 280 280 280 280 280 279 278 278 277 277 277 277 277 277 276 276 275 275 275 274 274 274 274 273 273 273 273 273 273 273 272 272 272 272 272 273 273 273 277 278 277 274 273 273 274 273 273 273 273 272 272 272 272 272 274 276 275 275 275 276 276 276 275 274 273 273 273 272 272
281 281 281 281 280 280 280 279 279 279 279 280 280 280 281 281 281 280 280 280 279 278 278 277 277 277 277 277 276 276 276 275 275 275 274 274 274 274 273 273 273 273 273 273 273 272 272 272 272 272 271 272 273 274 278 279 279 278 274 273 273 273 273 273 273 272 272 272 272 272 272 274 274 274 274 275 275 275 275 275 275 276 275 273 272
281 281 281 280 280 280 279 279 279 279 279 280 280 280 280 280 280 280 280 279 279 278 278 277 277 277 277 276 276 276 275 275 274 274 274 274 274 273 273 273 273 272 272 273 272 272 272 272 272 271 271 272 272 276 279 280 279 279 277 274 273 273 273 272 272 272 272 272 271 271 272 272 272 272 271 272 273 274 274 275 275 275 275 275 275
282 282 281 281 281 280 280 280 280 280 280 280 280 280 280 281 280 280 279 278 278 278 277 277 277 277 276 276 276 275 275 274 274 274 274 274 273 273 273 272 272 272 272 272 272 272 271 272 271 271 271 271 272 277 280 280 280 279 278 275 273 273 273 272 272 272 271 271 272 272 271 271 271 274 273 271 271 272 274 275 275 275 274 273 273
282 282 282 282 282 281 281 281 281 281 281 281 281 280 280 280 280 279 278 278 278 278 277 277 277 276 276 276 276 275 275 274 274 274 274 273 273 273 273 273 272 272 272 272 272 271 271 271 271 271 270 270 271 277 280 280 280 280 280 277 273 273 272 272 272 271 271 271 271 271 271 270 270 271 271 271 271 272 273 273 271 270 269 269 270
282 282 283 282 282 282 281 281 281 281 281 280 280 280 279 279 279 278 278 278 278 277 277 277 276 276 276 276 276 275 275 274 274 274 273 273 273 273 273 272 272 272 271 271 272 271 271 271 271 270 270 270 271 277 280 281 281 280 280 278 273 273 272 271 271 271 271 271 271 271 271 270 270 270 271 272 272 272 273 271 270 269 268 267 267
284 283 283 283 282 282 282 281 282 281 281 280 280 280 279 278 278 278 278 278 278 277 277 277 276 276 276 276 275 275 275 274 274 273 273 273 273 273 272 272 272 273 273 273 272 272 272 271 271 271 270 269 270 277 280 280 281 280 280 276 274 272 271 271 270 271 271 271 271 271 271 271 271 271 272 274 275 274 272 270 269 268 267 266 266
285 285 285 285 284 283 283 282 281 281 281 280 280 279 279 278 277 277 277 277 277 276 276 276 276 276 276 276 276 275 275 274 274 273 273 273 272 272 273 273 272 273 272 272 272 272 272 272 271 271 270 270 270 275 279 280 280 281 279 273 273 272 271 270 269 270 270 271 271 271 271 271 271 270 273 274 275 275 271 269 268 266 266 265 265
285 285 284 284 284 284 283 283 281 281 281 281 280 279 278 277 277 277 276 276 276 276 276 276 276 276 276 276 276 276 275 275 274 273 273 273 273 273 273 274 273 272 272 272 272 272 272 272 271 271 271 270 270 274 279 280 281 281 278 272 272 270 269 269 269 270 270 270 271 273 272 271 271 271 273 274 275 273 268 267 266 264 264 263 264
284 285 285 285 285 285 284 283 282 281 281 281 280 278 278 277 277 276 276 276 276 276 276 276 276 276 276 276 276 276 276 275 274 274 274 273 273 273 274 274 273 273 272 272 272 271 271 272 271 271 272 271 270 272 278 280 280 280 277 271 271 270 269 269 269 270 271 270 271 273 273 272 272 272 274 275 275 271 267 266 265 264 263 263 262
283 284 285 285 285 284 283 282 281 281 281 281 280 278 277 277 277 277 276 276 276 276 277 277 277 276 276 276 276 276 276 276 275 275 274 274 274 274 274 274 274 273 273 272 272 272 271 271 271 271 271 271 270 271 274 280 280 280 279 271 270 269 269 269 270 270 270 270 270 271 273 274 274 275 275 275 275 272 267 266 265 264 263 263 262
282 283 284 284 284 285 284 283 283 283 282 281 280 278 278 277 277 276 276 277 277 277 277 277 277 276 276 276 276 276 276 276 276 276 276 275 275 275 274 274 273 273 273 272 272 271 271 271 271 271 271 271 271 270 272 279 280 280 280 275 271 270 270 270 270 270 270 269 270 270 270 273 275 275 275 275 275 272 269 266 265 264 266 263 262
281 281 282 283 283 284 284 284 284 283 282 281 280 279 278 278 277 277 277 278 278 278 277 277 277 276 276 276 276 276 277 276 277 276 276 275 275 275 275 274 274 273 272 272 272 271 271 271 271 271 271 271 271 272 271 277 280 280 280 278 272 271 271 270 270 270 270 269 270 270 270 272 274 275 274 275 275 273 270 266 267 269 269 266 259
281 280 280 283 282 283 283 283 283 282 282 281 280 279 279 278 278 278 279 278 278 278 277 277 277 276 276 276 276 276 276 277 277 277 276 275 275 275 275 274 273 273 272 271 271 271 270 270 270 270 270 270 271 271 273 274 278 280 280 279 276 273 274 271 270 269 269 269 270 270 271 272 274 274 274 275 273 271 268 268 269 269 267 265 260
279 281 281 282 283 283 283 283 283 282 282 281 280 279 279 278 278 280 279 278 278 278 277 277 276 276 276 276 276 276 276 277 277 277 276 276 275 275 274 274 273 273 272 271 271 271 270 270 269 269 269 270 270 270 272 274 276 280 280 280 278 276 275 271 270 270 270 270 270 270 270 273 274 274 274 273 271 269 267 269 268 267 265 261 254
281 281 281 281 283 283 282 282 282 282 282 282 281 280 280 279 280 280 279 278 278 278 277 277 276 276 276 276 276 276 276 276 276 277 276 275 275 275 274 274 273 272 272 271 271 270 270 270 269 269 269 269 269 270 270 272 275 277 280 280 279 278 276 275 271 270 271 270 272 273 273 274 273 274 273 272 270 269 269 268 267 265 260 254 251
278 279 280 281 282 281 281 282 281 282 282 282 282 281 280 281 281 281 280 279 278 277 277 276 276 276 276 276 275 275 275 276 276 276 276 276 275 275 274 273 273 272 272 271 271 270 270 270 269 269 268 268 269 269 269 270 273 275 277 279 279 278 276 276 272 271 272 273 274 274 274 273 273 272 266 262 261 264 267 266 264 259 254 251 250
279 280 279 279 278 281 280 281 281 281 282 282 282 282 282 283 282 281 280 279 278 277 277 277 276 276 276 276 275 275 275 275 275 275 275 275 275 274 274 273 273 272 272 272 271 271 270 270 269 270 269 269 268 269 268 269 270 272 273 275 276 276 276 275 273 271 272 272 272 272 271 271 268 267 264 264 263 263 259 258 256 255 252 249 250
278 278 279 278 280 281 281 281 281 281 281 282 282 282 283 283 282 281 280 279 278 277 277 276 276 276 276 276 275 275 275 275 275 275 274 274 274 274 273 273 272 272 271 271 271 271 270 270 270 270 270 268 268 268 268 268 269 270 271 272 274 274 274 273 272 271 271 270 270 271 269 265 264 260 259 257 255 254 254 254 252 251 249 252 254
277 276 277 280 280 281 281 281 282 282 281 281 282 282 283 283 282 281 280 279 278 277 277 276 276 276 276 276 276 276 275 275 275 275 275 275 274 274 274 274 274 274 273 272 272 272 272 272 272 271 270 268 268 268 268 271 270 272 270 271 271 272 273 273 273 273 267 266 264 262 260 260 259 257 255 255 253 252 250 251 250 247 246 247 246
278 277 276 278 279 280 281 281 282 282 281 281 281 282 283 282 282 281 280 280 279 278 277 277 276 276 276 276 275 275 275 275 275 274 274 274 274 276 276 274 274 275 276 278 277 273 273 273 272 272 272 270 269 270 274 275 274 274 275 274 274 275 276 273 274 274 268 264 263 262 261 259 258 257 256 254 253 252 251 248 248 253 249 246 247
277 275 275 276 278 279 280 280 281 281 281 281 281 282 282 282 282 281 281 280 280 279 278 277 277 276 276 276 276 275 275 275 275 275 274 274 273 275 279 279 278 276 276 278 279 278 278 277 274 272 274 276 274 273 275 275 275 275 275 275 275 276 277 276 276 270 266 264 262 261 260 259 258 257 256 255 254 252 251 250 249 248 247 249 250
Wind_Speed
4 4 4 4 4 4 4 4 3 4 4 4 4 4 4 3 3 6 4 4 6 8 7 7 7 9 6 7 8 6 6 6 6 5 6 6 7 7 7 5 5 6 6 6 7 6 6 6 6 6 5 6 7 8 6 7 6 5 6 5 6 8 7 5 4 3 11 10 8 8 9 7 8 7 8 7 7 6 5 6 5 6 6 7 6
4 4 4 4 4 5 4 5 6 7 6 5 6 6 5 4 4 5 5 5 4 3 5 5 4 5 10 7 8 7 6 5 6 5 6 6 7 7 7 6 6 6 6 6 7 6 7 6 6 6 6 7 7 7 8 7 7 6 3 7 6 6 5 5 4 1 4 7 9 6 6 6 6 7 7 7 6 6 6 6 6 6 6 6 6
6 6 6 6 6 6 5 5 5 5 7 6 6 6 5 6 3 4 4 3 5 3 5 6 5 6 7 9 7 9 7 7 7 7 7 8 8 7 7 6 6 6 6 6 6 7 7 6 6 6 6 5 7 9 8 9 8 7 6 5 6 5 5 6 6 3 6 4 6 8 4 4 2 4 5 6 6 6 6 7 6 6 6 5 5
9 9 9 7 7 6 6 6 6 5 5 6 7 6 6 6 5 4 4 4 5 5 5 6 7 7 8 8 8 7 9 8 8 7 7 8 9 7 7 6 7 6 7 6 6 7 7 7 6 6 6 6 7 7 7 7 6 7 7 7 3 5 3 6 6 6 3 6 4 2 4 5 3 1 3 2 4 6 8 7 6 6 6 6 6
9 9 9 9 9 9 8 7 6 5 5 6 6 6 5 7 6 5 6 6 5 6 8 8 10 10 9 11 10 11 8 6 7 6 5 7 7 7 6 6 7 7 7 7 7 7 6 6 7 6 6 5 4 6 7 7 7 7 6 6 6 3 5 2 6 6 7 3 4 5 3 0 2 4 4 1 2 4 6 8 7 7 7 6 6
12 12 12 11 10 8 7 8 7 6 6 6 5 6 7 6 7 6 6 6 8 8 9 9 8 10 12 13 12 9 10 8 5 8 6 6 7 6 7 7 7 8 7 7 7 7 7 6 6 6 5 4 5 6 6 7 8 8 6 5 7 7 4 5 4 5 7 8 8 4 1 2 7 3 3 3 1 2 3 6 7 5 4 6 6
9 8 9 10 10 9 10 10 9 8 6 5 5 5 6 6 7 6 8 8 9 9 9 8 7 6 5 4 8 11 13 6 6 5 7 7 6 9 8 7 7 8 7 6 6 7 7 6 6 6 5 5 5 5 7 7 6 6 5 6 6 5 4 6 5 2 3 8 7 7 9 7 4 5 3 4 2 1 2 4 6 5 4 6 7
11 12 13 12 12 13 13 11 9 8 7 6 6 7 8 8 7 7 7 7 7 9 10 8 10 7 5 6 5 7 8 11 10 8 7 7 9 10 9 7 6 6 7 7 6 7 7 6 5 5 5 5 6 6 7 6 6 6 7 7 6 7 7 5 4 4 4 2 3 6 7 8 8 9 4 2 3 5 2 2 3 5 4 5 5
11 11 13 13 13 11 10 10 8 8 8 7 6 7 5 6 7 7 7 8 8 9 8 6 5 7 9 8 8 6 8 8 7 7 7 6 9 7 8 8 7 6 6 7 6 6 6 5 4 5 5 6 6 6 7 7 7 6 6 6 7 7 7 5 5 5 5 3 2 5 6 7 7 7 6 5 3 3 1 3 4 3 2 2 4
10 11 9 9 8 8 7 7 9 8 8 7 6 6 5 5 7 7 7 7 8 10 9 10 10 9 9 10 12 11 9 9 8 8 7 7 10 10 9 8 7 6 6 5 7 6 6 5 4 5 6 6 6 7 7 7 6 6 7 8 7 8 5 6 6 4 4 5 4 2 4 4 6 6 6 5 5 4 4 1 3 4 6 5 3
12 11 10 9 8 8 9 11 10 8 7 9 8 7 7 6 7 7 7 6 7 9 10 11 9 9 10 12 11 13 10 10 10 9 8 6 7 7 8 8 6 6 5 5 5 5 5 6 5 5 5 6 7 6 6 5 5 6 6 9 9 7 5 6 7 6 4 5 6 6 6 6 5 5 3 4 4 3 3 1 1 1 2 4 2
14 11 10 9 9 9 9 11 12 11 9 9 8 8 8 7 8 8 8 8 7 6 6 5 6 5 7 9 11 11 12 10 11 13 11 9 8 8 6 6 6 5 5 5 6 6 7 6 6 5 6 5 6 5 5 4 5 6 7 7 7 7 6 6 5 6 6 6 7 6 6 6 6 6 4 5 5 3 4 1 2 2 2 1 4
13 13 12 11 13 13 14 13 13 14 11 11 10 8 8 8 8 9 8 8 8 7 6 6 8 6 7 8 9 10 11 10 10 10 8 8 8 9 10 9 8 7 6 7 6 6 5 6 5 5 5 6 5 5 5 5 5 7 8 7 7 7 5 5 6 5 5 6 6 6 6 6 6 5 5 5 4 4 4 4 1 1 2 3 2
15 14 13 14 14 13 14 14 13 10 11 11 10 10 8 8 9 9 8 8 8 7 6 7 7 7 7 7 8 9 8 6 4 6 6 6 6 7 8 8 8 7 8 7 6 6 6 6 6 5 5 6 6 5 5 6 6 7 7 7 7 6 6 6 6 6 5 6 5 7 7 7 6 6 5 6 5 5 4 2 1 2 2 3 2
13 14 16 17 16 15 14 14 12 13 12 11 10 10 9 9 10 10 10 9 9 8 9 9 9 9 9 8 8 5 5 6 5 5 7 8 6 7 6 6 7 7 7 7 7 7 7 6 6 5 5 5 5 5 6 6 7 7 6 7 6 5 6 6 5 6 7 7 7 7 7 7 6 5 6 5 4 4 4 1 1 2 2 2 2
15 15 15 14 13 13 12 12 11 11 13 11 12 11 11 11 11 11 11 10 10 9 9 9 8 8 8 9 7 5 5 5 5 5 5 6 7 7 7 6 6 7 7 8 7 6 6 7 6 6 5 5 5 5 7 6 7 7 6 6 6 3 6 6 5 6 7 7 7 7 7 6 5 5 5 5 4 4 4 3 3 3 2 3 3
13 14 13 15 12 13 12 13 12 12 12 13 13 12 13 12 12 12 11 9 9 8 8 7 8 8 8 7 8 8 9 9 7 8 7 7 7 6 6 6 7 6 7 7 8 6 6 6 6 6 5 6 7 7 7 7 6 6 6 6 6 5 5 6 5 6 6 6 7 8 7 6 5 5 5 5 5 4 4 4 4 4 2 2 3
18 16 12 13 14 15 13 12 12 12 12 13 14 11 11 11 12 13 12 12 10 9 9 9 10 10 10 9 8 8 9 9 9 8 7 7 7 6 6 5 5 6 6 6 8 8 7 7 5 6 7 7 7 7 6 6 6 6 6 5 4 4 5 5 5 6 6 6 6 6 6 6 4 5 5 5 5 5 5 5 4 4 3 4 2
13 13 14 15 15 15 15 14 12 11 11 11 11 11 11 10 10 11 12 11 10 9 8 8 9 8 7 7 9 10 7 7 7 8 8 9 10 9 7 6 6 6 7 8 7 6 5 6 7 7 7 7 7 6 6 6 5 6 5 5 4 4 5 6 5 6 5 6 7 6 5 5 4 5 5 5 4 5 4 4 4 4 4 4 4
16 16 15 15 14 14 15 15 16 14 13 11 12 10 12 11 12 11 10 10 10 10 9 8 5 7 8 5 6 5 7 8 9 10 10 10 12 11 10 9 7 5 5 7 6 7 6 6 7 7 7 7 7 6 5 5 5 5 5 5 4 5 6 6 5 5 5 5 6 6 5 5 4 4 5 5 5 4 3 4 3 4 4 4 4
15 15 15 14 14 13 13 12 12 11 10 10 11 12 12 11 12 13 14 14 12 8 9 8 11 7 7 8 8 7 7 8 9 9 7 8 10 10 10 8 7 6 5 7 6 6 7 8 8 7 7 6 6 6 5 5 5 5 5 5 5 6 7 5 5 5 4 5 5 6 5 4 4 5 5 4 4 3 3 4 4 5 5 4 4
12 13 12 12 12 12 11 11 11 12 12 12 11 11 12 12 12 13 12 10 9 11 12 12 9 9 9 9 8 10 9 9 7 6 6 8 6 5 7 8 8 6 8 8 7 8 7 8 8 8 7 6 5 5 5 5 6 6 5 4 5 6 6 5 5 5 5 4 5 6 5 4 4 5 4 4 3 3 4 5 5 5 5 4 3
10 10 11 12 12 12 12 13 13 13 12 13 12 12 12 13 12 13 13 12 14 12 10 10 9 10 10 10 9 9 9 10 10 8 6 10 5 7 6 8 8 6 7 7 8 8 8 8 8 7 7 6 6 5 4 5 5 6 6 5 5 5 5 5 5 5 5 4 5 5 4 4 4 4 3 3 3 3 3 5 5 4 2 2 3
10 9 10 11 12 12 12 14 14 14 14 14 12 12 12 12 12 12 13 13 13 11 11 10 9 9 9 9 9 8 8 8 9 8 7 6 6 6 9 6 7 6 7 7 7 8 8 8 8 7 6 6 6 5 5 5 5 6 6 6 5 5 5 5 5 5 4 4 5 5 4 4 3 3 2 2 2 3 4 3 2 2 2 4 4
13 13 13 13 13 15 15 14 14 13 12 13 12 13 13 13 13 13 12 12 11 10 10 10 9 10 10 10 10 10 10 10 10 9 10 10 10 9 7 6 7 7 8 8 7 7 8 8 8 8 7 7 6 6 6 5 5 5 5 5 5 5 4 4 4 4 4 4 4 4 3 3 3 3 2 2 2 3 2 1 2 3 3 4 4
14 14 14 16 15 12 13 14 13 13 13 14 13 13 13 13 13 12 12 12 12 10 11 11 10 11 11 11 10 10 11 11 11 10 11 10 10 9 9 5 8 10 8 7 8 7 7 8 7 7 7 7 6 6 6 6 6 5 5 5 5 5 4 4 4 4 4 4 4 3 3 3 3 2 2 2 1 0 1 2 3 3 3 2 3
15 15 13 12 13 15 15 14 13 14 13 13 14 14 14 13 13 13 11 11 11 11 11 11 11 11 10 11 11 10 10 11 11 10 9 9 9 9 9 10 8 9 9 9 7 8 6 7 7 7 7 7 6 6 6 6 6 5 5 5 5 5 4 4 3 4 4 3 2 2 2 3 2 3 2 0 0 2 2 3 2 1 2 2 3
9 11 15 16 15 14 15 15 15 15 14 14 14 14 15 15 15 13 12 12 10 12 12 12 11 11 11 11 10 10 10 9 9 9 9 9 9 9 9 8 8 9 9 8 9 8 7 6 7 7 6 6 6 6 6 6 5 5 5 5 5 5 4 4 4 3 3 2 2 1 2 2 2 1 2 1 1 2 2 2 1 1 2 3 4
12 12 12 14 15 15 17 17 17 16 17 17 15 14 12 11 10 11 11 12 11 12 12 12 12 12 12 11 10 10 9 9 9 10 10 10 9 9 8 8 7 7 7 7 7 8 8 7 6 6 6 6 7 7 6 6 6 6 5 5 5 5 5 4 3 3 2 2 1 3 2 2 1 1 1 2 3 3 3 1 2 1 3 3 4
14 14 14 13 13 14 15 16 16 18 18 17 15 14 14 14 14 13 14 12 12 13 13 13 13 12 10 10 12 10 10 10 10 11 11 10 9 9 9 8 8 7 7 7 7 7 7 8 8 7 6 6 6 5 8 13 10 6 6 5 5 5 4 4 4 3 2 2 3 3 2 4 3 3 0 2 2 1 2 1 1 2 3 4 5
12 13 14 15 16 15 14 15 14 15 16 16 15 15 13 13 12 13 13 13 12 13 13 13 13 12 8 8 8 11 11 12 11 10 9 10 10 9 9 9 8 8 9 8 8 9 8 8 9 8 8 7 6 6 14 14 14 13 7 5 5 5 4 4 4 4 3 3 3 3 3 4 3 2 1 2 1 2 2 2 3 3 4 4 5
13 13 13 13 14 14 14 14 14 15 15 14 14 12 12 12 12 13 12 12 12 12 14 13 14 11 9 9 9 12 12 12 11 11 11 10 10 10 10 10 9 9 9 8 9 9 9 8 8 8 8 7 6 10 16 15 14 14 11 6 5 5 5 4 4 4 3 3 4 3 2 3 1 3 2 1 1 2 2 2 2 1 5 8 9
13 14 15 15 16 16 17 17 16 15 15 15 14 13 14 14 13 12 11 12 14 11 8 9 9 9 11 9 9 9 13 12 12 12 11 11 11 11 11 11 12 10 9 10 10 10 10 9 9 9 8 7 6 13 16 16 15 15 14 10 5 5 5 4 4 4 4 4 3 4 2 2 2 7 4 2 1 1 3 4 2 8 9 10 9
11 13 15 15 13 13 13 14 14 13 13 11 11 11 10 9 10 10 13 13 14 12 12 11 10 9 10 10 9 11 13 13 12 11 11 12 12 13 12 10 10 10 11 10 10 11 9 9 9 9 8 7 7 13 17 17 16 16 15 11 5 5 4 4 4 4 4 4 4 4 4 4 3 3 2 2 3 4 5 2 5 4 5 7 9
12 12 12 13 14 14 13 14 14 15 13 12 12 11 9 10 12 13 13 14 10 8 11 10 11 10 10 10 9 13 14 13 13 13 13 13 13 12 12 12 11 12 12 12 12 12 11 10 9 8 8 8 7 16 18 17 16 16 16 12 6 5 4 4 4 3 3 3 3 4 4 5 5 4 3 4 5 6 3 5 4 4 3 4 4
13 15 15 14 15 16 17 16 13 12 13 14 15 13 12 12 12 13 13 14 15 14 13 13 13 13 16 16 14 11 15 13 14 14 13 14 13 14 14 12 11 10 9 8 7 7 9 10 10 10 9 9 8 18 18 18 17 16 17 8 6 6 5 4 4 4 3 4 4 5 5 6 6 4 5 7 7 3 6 5 4 3 2 2 2
11 12 14 15 14 13 14 11 11 13 14 14 13 13 14 13 14 14 13 13 14 16 17 16 17 16 16 14 15 15 15 15 14 14 15 14 14 14 12 11 10 8 9 10 10 8 7 7 10 9 9 9 9 16 19 18 18 18 14 6 6 5 5 5 5 4 3 5 5 6 6 5 5 4 6 8 6 8 5 5 4 2 1 1 2
7 6 6 8 9 9 9 12 13 14 15 12 12 13 12 12 13 12 13 14 15 17 16 15 14 15 15 15 15 16 15 15 15 16 16 15 13 11 13 11 10 10 10 8 7 7 7 8 11 10 11 8 8 14 19 18 19 21 12 8 6 6 5 5 5 5 5 5 6 11 8 6 5 5 7 8 4 9 6 5 4 1 1 2 1
8 10 11 11 12 14 14 13 14 15 14 13 13 14 14 14 14 14 14 16 18 16 15 15 15 14 14 14 14 14 15 15 16 16 15 15 15 14 11 10 11 10 7 8 10 8 7 9 8 9 12 10 7 11 19 20 21 21 12 7 7 6 6 6 6 5 6 5 6 9 11 8 6 6 9 7 6 10 6 4 3 2 1 2 2
6 6 9 10 8 9 10 13 14 16 14 15 14 14 15 15 15 14 16 19 18 15 13 13 13 13 12 13 13 15 16 16 17 15 13 13 11 10 11 12 11 10 11 11 10 10 8 7 8 9 9 9 8 9 13 22 21 20 18 9 7 8 8 9 8 7 7 6 6 5 8 11 11 11 9 7 7 14 7 4 3 1 3 3 3
6 7 6 7 9 13 15 17 17 16 15 15 15 15 16 15 15 15 20 18 13 12 14 14 13 13 14 16 14 16 17 16 14 13 12 10 10 12 12 12 12 10 11 10 12 11 11 11 11 10 9 9 9 9 13 21 22 21 21 16 8 9 7 7 7 7 7 7 6 6 4 9 12 11 9 8 8 12 9 4 4 2 1 7 6
2 5 6 7 8 9 10 11 10 13 14 14 15 16 16 15 16 19 20 14 14 15 14 14 15 15 15 15 15 14 14 13 12 12 12 13 12 12 12 11 10 10 12 12 11 10 10 10 9 10 11 12 11 15 11 18 23 23 22 21 11 9 9 6 8 6 7 6 6 6 5 9 13 11 10 10 10 9 10 4 2 3 11 11 5
4 4 5 8 8 9 11 12 10 11 12 13 16 18 17 16 19 23 16 13 14 13 14 14 14 15 15 15 15 16 14 12 13 14 13 13 11 12 11 11 11 11 12 13 12 11 10 10 9 9 10 11 11 11 15 14 21 24 23 22 18 11 16 8 6 6 7 6 6 7 7 13 13 12 10 12 9 10 6 3 4 5 8 10 8
3 4 7 8 9 9 9 8 9 11 12 13 16 16 15 16 21 15 10 11 12 13 13 14 14 15 15 15 14 15 14 13 14 13 13 13 13 12 12 11 12 12 12 12 11 11 11 11 12 12 11 11 10 10 14 17 15 24 23 23 20 18 18 8 8 5 6 7 6 7 8 15 13 12 11 12 11 8 4 5 6 8 9 9 4
6 6 6 7 10 10 9 8 9 12 12 13 15 17 16 19 19 12 13 13 14 13 14 15 15 14 14 14 13 13 14 14 14 14 15 14 14 13 13 12 12 13 12 13 12 12 13 13 12 12 13 11 10 10 11 15 18 19 23 22 22 21 19 17 10 7 7 7 9 13 15 15 13 13 15 13 9 8 7 8 9 10 8 4 5
3 3 5 7 6 5 7 10 9 11 13 13 15 16 19 22 15 12 13 13 13 14 14 15 14 14 14 13 14 14 14 15 15 13 15 14 15 15 14 13 13 13 13 13 13 13 13 13 13 11 13 13 11 10 11 11 13 12 15 23 23 21 19 19 13 9 12 14 15 15 16 16 13 11 9 7 6 5 9 10 10 9 5 4 5
7 8 4 4 5 6 8 9 10 10 12 13 14 15 18 15 12 12 13 13 13 15 15 14 15 14 13 14 16 14 13 13 14 13 13 13 13 13 14 14 14 15 15 14 14 14 13 13 13 13 12 12 11 11 10 10 11 11 11 12 14 15 19 18 12 9 12 10 11 12 7 9 11 12 11 10 9 8 7 5 5 4 4 5 4
7 3 5 5 6 8 9 9 11 10 11 12 13 14 15 13 10 11 12 13 15 15 16 15 15 13 13 14 15 17 17 13 14 14 14 13 13 14 15 17 17 17 16 16 15 15 16 16 15 13 12 11 11 11 12 13 13 14 12 11 10 10 10 10 10 9 9 8 6 7 10 7 7 7 6 6 5 4 5 6 5 4 4 4 4
5 6 7 10 9 9 10 10 11 8 9 10 12 13 12 13 11 10 12 14 14 15 14 14 14 13 14 13 13 13 14 14 13 14 15 15 16 16 17 15 15 14 16 17 17 16 15 15 14 14 14 14 13 15 16 17 18 19 17 14 13 12 10 10 11 14 8 7 7 7 6 7 7 7 6 6 6 5 4 4 4 4 4 3 2
7 4 6 7 8 10 10 11 11 8 9 10 12 12 11 11 10 9 11 14 14 13 13 14 13 13 13 12 12 12 13 13 13 13 13 12 14 18 14 15 15 19 22 20 17 16 15 14 14 14 15 18 20 20 23 30 25 24 26 23 18 17 18 11 15 22 12 9 8 9 8 8 7 7 7 7 7 6 6 4 4 5 5 4 4
7 5 6 8 9 9 8 9 10 8 10 11 12 12 12 11 10 11 12 13 13 12 12 12 12 12 14 13 13 13 13 12 12 12 12 13 11 13 21 22 16 17 20 24 24 20 17 18 15 13 14 18 3 3 16 22 24 25 26 26 24 22 23 21 22 14 10 10 9 9 9 8 8 8 8 8 7 7 7 6 7 6 4 6 5
Wind_Direction
168 184 189 191 179 178 165 158 152 131 109 117 113 81 31 56 83 98 74 88 127 130 125 138 126 117 87 99 104 98 90 82 71 65 67 64 51 48 46 45 47 62 66 74 74 78 74 75 76 70 68 69 71 69 64 60 50 56 69 55 72 84 52 21 25 73 108 85 74 75 70 59 63 61 64 61 60 60 58 61 53 53 46 45 37
157 189 200 194 191 190 186 178 172 156 152 142 126 128 117 61 68 94 109 101 52 25 110 108 66 112 130 125 117 110 103 89 86 63 65 60 54 55 53 38 40 54 65 70 79 75 77 71 66 69 69 74 73 70 62 53 47 42 46 74 40 75 68 14 349 71 61 127 129 101 76 68 57 57 59 54 55 54 58 59 50 50 44 38 30
192 207 200 199 194 193 195 196 193 177 156 150 145 128 113 115 113 114 92 80 94 97 108 109 98 100 114 124 126 113 90 95 92 93 85 79 66 51 52 43 43 48 52 64 76 72 76 76 69 64 63 69 77 66 56 54 46 43 31 77 88 53 83 34 19 24 131 117 112 108 155 95 109 50 44 53 50 53 54 53 49 50 41 33 30
202 199 200 198 197 195 193 197 191 172 164 154 154 143 139 133 133 128 108 100 98 104 99 96 102 91 87 98 104 105 121 109 98 94 91 86 78 69 58 51 49 49 46 59 70 73 70 74 73 67 63 63 81 81 64 56 42 42 36 31 26 101 39 42 21 31 79 140 144 157 170 127 137 110 112 64 54 53 51 49 45 41 36 30 29
197 191 197 193 195 200 195 194 181 180 181 174 168 159 148 144 145 138 129 118 111 113 115 116 114 107 104 91 93 95 81 92 98 78 77 88 88 70 58 51 55 54 47 57 70 70 68 73 81 75 71 61 63 80 76 69 60 58 49 54 24 93 105 106 38 33 50 32 153 117 78 141 203 156 142 99 25 61 46 47 39 36 32 31 29
197 196 193 191 191 188 189 192 187 184 185 187 172 163 152 149 145 139 131 125 125 126 125 124 129 135 139 136 133 129 125 137 134 135 127 105 93 85 61 46 60 61 49 46 57 68 67 60 72 81 79 76 67 82 89 81 64 60 42 46 52 18 88 104 88 41 53 46 47 71 136 174 154 199 113 172 36 65 96 60 40 24 32 32 30
204 198 191 188 188 185 189 192 189 182 175 169 165 160 159 156 152 151 148 144 143 139 138 132 133 148 147 131 138 142 135 120 110 107 111 110 107 95 83 64 55 69 60 46 51 63 63 64 64 64 75 73 75 76 77 76 72 71 62 65 57 46 358 69 67 64 49 44 40 53 59 49 70 124 187 110 154 262 45 70 35 12 25 34 27
206 202 197 194 188 187 186 182 182 177 162 159 162 166 166 161 157 150 148 145 149 149 152 154 153 156 131 122 113 116 126 132 134 125 118 118 111 106 102 90 73 69 78 67 54 57 69 70 66 73 74 69 78 71 81 86 87 75 71 70 75 64 45 47 48 11 80 55 26 58 59 53 49 54 62 153 146 155 256 345 58 9 20 36 31
208 204 200 195 192 187 178 175 167 158 163 165 165 167 158 160 158 156 155 153 154 156 147 136 138 140 139 133 117 106 116 120 119 118 119 122 110 108 105 101 93 81 84 86 76 72 71 70 66 76 68 73 75 79 77 77 79 82 76 68 68 68 69 63 56 36 43 67 84 63 69 69 60 52 44 44 87 101 333 22 335 340 9 24 16
213 212 202 197 189 181 173 154 159 167 162 162 161 159 159 157 163 163 164 163 162 161 156 150 146 145 141 137 133 134 134 130 133 132 132 133 123 123 116 111 107 97 85 84 95 87 76 71 66 74 80 83 81 76 78 76 74 77 82 84 75 79 72 79 79 61 37 47 56 95 83 67 56 46 35 43 47 65 143 46 340 357 347 316 358
206 203 198 189 176 171 162 169 171 160 161 163 161 161 165 166 169 166 170 161 164 162 160 157 151 156 152 149 147 145 149 145 142 140 139 143 131 128 128 123 121 115 114 102 88 96 102 97 87 83 81 87 88 82 82 80 78 83 79 76 73 75 76 81 83 71 58 60 59 64 73 77 99 103 90 65 90 89 70 59 279 289 270 307 322
195 190 192 174 166 170 165 169 172 173 166 170 166 164 168 169 170 165 168 168 161 153 147 141 143 142 144 149 151 154 153 155 152 150 153 147 142 133 121 113 114 115 112 112 107 104 99 93 90 83 78 80 84 90 89 89 89 82 74 73 74 69 67 69 70 77 71 81 71 69 75 81 76 89 95 86 89 84 107 86 358 323 323 254 300
187 189 184 179 181 178 179 176 172 178 176 173 172 168 166 170 168 163 167 167 160 153 142 140 155 151 149 151 156 155 155 155 153 151 154 147 142 138 137 131 132 129 135 123 118 110 109 104 89 89 92 88 93 94 87 79 79 77 78 77 77 71 69 76 79 74 73 80 91 80 83 77 75 73 78 83 73 81 90 70 322 299 257 304 289
192 188 185 186 184 182 182 178 176 171 173 173 169 169 168 169 170 167 168 165 161 157 146 142 150 151 152 154 149 153 152 141 113 115 123 121 129 128 135 141 143 143 137 128 124 117 105 98 97 91 89 97 95 90 87 81 72 75 77 84 81 84 84 82 86 89 79 86 89 86 76 73 71 64 69 71 69 74 61 71 317 294 208 266 295
196 189 188 188 185 181 179 182 176 176 171 171 171 168 167 169 169 169 165 168 165 156 157 156 155 156 157 156 155 143 133 129 131 131 134 139 136 132 130 135 136 136 131 127 125 119 110 103 102 97 91 85 89 90 86 74 81 80 85 87 87 87 90 90 87 90 87 84 80 82 82 71 69 69 73 70 72 72 95 89 90 15 338 203 307
193 194 192 186 179 175 176 180 178 175 173 171 172 170 171 172 169 170 168 167 167 160 162 158 154 150 152 154 149 134 131 116 117 112 114 123 128 130 132 132 133 133 129 129 129 122 121 114 105 97 97 97 89 86 92 89 88 91 87 90 94 93 97 93 92 86 85 84 85 84 79 77 72 72 70 70 70 72 73 58 63 56 66 331 320
190 193 189 183 171 174 179 179 177 177 177 177 175 174 172 169 168 167 168 167 168 166 156 152 149 149 151 149 148 144 144 145 135 132 128 126 119 124 124 127 128 129 130 128 126 121 114 114 115 114 104 97 94 87 89 89 90 92 96 99 98 98 95 93 89 88 86 86 83 80 82 79 71 69 65 65 67 70 66 64 53 79 51 111 17
190 187 182 178 178 176 174 178 178 179 178 174 173 173 173 171 170 166 167 168 170 162 159 158 158 155 153 153 149 148 147 143 140 129 130 123 119 117 123 133 139 138 131 130 127 123 121 124 117 110 106 99 97 94 95 96 98 94 96 91 96 101 100 94 86 87 84 86 82 78 77 74 71 68 71 69 70 68 65 60 69 48 63 97 90
172 174 178 178 180 179 176 172 174 173 177 177 169 168 170 170 170 169 168 170 165 162 158 160 162 159 159 152 152 151 147 137 132 134 134 135 135 137 141 140 141 141 136 137 131 125 129 126 118 110 103 100 97 100 100 99 102 106 104 106 104 105 101 93 81 83 82 85 86 84 80 80 72 75 74 70 65 67 59 72 69 75 61 73 74
183 184 180 178 176 172 169 169 174 173 173 174 171 169 173 170 167 166 165 166 167 169 167 163 152 154 157 139 142 139 144 148 152 148 151 150 149 147 145 152 154 145 133 132 132 135 129 121 117 110 105 101 104 102 104 105 103 104 112 110 110 104 95 89 82 76 87 90 94 89 85 84 75 78 73 71 67 59 64 64 63 65 57 57 58
183 179 174 171 168 165 164 164 164 163 170 172 175 174 171 168 172 172 172 173 174 164 163 160 165 159 147 154 153 148 149 151 149 155 145 152 153 147 145 135 129 146 148 143 136 131 127 126 118 112 113 115 116 116 115 116 111 108 100 104 101 97 98 97 97 91 91 96 96 95 90 83 86 80 80 74 66 61 58 54 55 55 49 35 50
176 169 161 159 158 158 156 155 159 164 172 174 174 174 176 177 176 174 175 177 164 168 174 171 170 166 162 156 147 158 153 158 149 143 134 144 143 141 132 131 142 147 154 145 134 133 127 123 118 116 118 119 117 120 125 122 119 114 105 100 101 104 107 110 107 103 99 101 99 96 88 85 81 87 85 77 69 55 49 43 32 43 30 22 354
159 158 155 155 156 158 159 161 165 170 171 173 177 180 179 178 176 179 179 181 179 174 170 170 168 168 167 161 156 160 161 160 155 147 140 155 134 140 128 129 141 141 146 146 139 132 128 122 120 123 124 125 127 125 125 123 122 120 117 111 114 120 121 120 115 111 106 104 96 90 89 87 82 84 89 86 73 56 50 46 26 20 20 313 270
141 144 147 150 152 154 158 165 169 173 177 179 179 180 182 183 180 179 183 177 176 175 171 169 167 165 163 159 160 156 156 156 159 157 143 130 136 130 145 129 132 136 138 140 135 132 126 127 129 131 133 135 136 133 129 128 128 128 126 125 123 122 123 123 121 115 106 102 100 87 86 88 91 95 100 81 70 53 48 34 16 327 279 261 263
148 153 155 155 159 166 169 169 172 173 175 178 179 184 184 183 182 183 181 178 174 172 168 169 163 161 164 164 164 163 161 161 160 159 159 155 159 155 153 136 142 139 138 137 135 132 132 137 141 145 145 146 146 143 136 134 131 131 130 128 127 125 124 121 118 115 107 102 91 93 90 98 107 102 111 84 71 33 22 12 287 272 255 261 261
156 154 158 168 171 166 166 171 172 175 177 178 181 186 187 185 186 183 177 174 177 169 170 166 166 167 170 169 169 167 166 164 163 164 163 162 160 159 151 136 149 146 144 143 141 145 146 146 145 148 149 149 148 145 144 143 143 138 131 129 128 124 125 122 116 107 103 93 97 102 117 127 131 122 111 94 89 332 312 258 258 261 264 265 272
166 165 163 156 167 175 172 170 174 174 178 182 183 186 187 185 184 183 179 177 173 169 170 170 170 172 170 173 171 172 168 167 167 164 161 162 164 160 157 158 159 152 149 148 150 146 151 148 150 149 154 154 151 148 149 149 145 140 134 133 130 129 126 121 109 104 95 102 114 125 133 150 128 126 125 163 191 270 237 254 256 251 279 248 278
163 167 170 173 171 169 174 175 176 179 180 185 187 189 188 186 184 182 178 175 174 172 172 174 173 173 175 173 173 170 170 171 166 163 163 163 161 160 159 154 153 155 155 155 156 154 151 151 154 155 156 153 151 152 152 150 144 142 139 136 140 136 129 111 104 97 106 110 129 155 160 145 141 140 150 251 190 224 245 203 242 192 277 316 327
172 178 176 176 179 180 179 180 182 178 182 183 186 191 192 190 183 178 175 179 174 172 174 176 176 178 177 171 168 171 169 168 168 166 165 167 166 160 155 156 157 157 156 157 154 151 150 152 155 157 159 158 159 163 160 155 150 147 141 143 141 136 130 125 116 119 122 122 136 145 148 163 164 170 182 198 226 226 155 141 287 212 313 340 338
181 180 180 180 184 186 189 185 184 184 182 184 187 191 191 187 183 179 179 178 170 179 177 178 180 180 171 166 172 172 172 169 172 174 171 167 163 159 160 161 162 161 159 159 156 156 158 161 162 166 166 166 169 167 170 165 163 156 150 149 135 134 136 144 143 134 128 137 143 139 119 116 95 86 210 244 224 249 337 321 234 319 339 357 346
186 185 185 187 189 189 188 190 190 188 188 186 189 191 190 190 184 178 179 177 174 177 179 180 182 176 157 156 159 174 172 175 176 172 170 167 164 163 162 163 164 166 166 165 162 165 169 170 172 172 174 174 173 176 179 179 176 168 154 148 149 148 150 152 152 147 145 141 132 125 108 101 104 79 130 157 115 325 347 320 322 350 15 12 32
190 188 187 190 194 191 189 189 189 191 191 191 191 190 187 190 183 182 178 170 176 180 183 183 181 171 165 167 169 173 176 177 173 176 173 170 165 163 167 169 168 170 171 167 174 176 174 175 176 179 180 180 177 184 185 184 179 174 165 157 154 161 156 161 155 155 154 142 141 128 127 119 134 131 129 96 359 333 287 288 294 28 64 52 40
189 189 191 192 194 196 194 192 190 190 190 194 189 185 192 188 183 180 166 174 182 181 165 163 162 161 170 170 169 169 178 177 179 175 172 169 170 170 171 174 179 176 168 178 181 177 182 180 180 182 185 182 179 189 191 186 182 175 169 163 162 163 162 158 155 154 156 148 145 142 132 140 152 152 148 187 198 251 259 255 103 95 70 54 36
196 195 194 195 193 195 196 194 194 193 193 188 188 193 189 178 173 165 174 179 183 182 178 177 173 172 169 170 167 172 181 181 177 175 175 176 177 180 179 177 173 174 181 180 182 186 183 185 186 185 184 183 181 197 193 188 185 181 175 163 167 163 164 161 155 158 155 162 161 158 157 145 150 154 186 195 218 225 234 146 109 84 71 42 26
193 197 200 197 196 195 192 192 193 188 183 179 187 186 174 172 175 178 183 182 180 155 179 175 178 175 170 171 168 178 181 180 179 180 181 183 182 179 179 182 181 182 183 185 184 187 189 186 186 183 183 185 189 199 195 190 187 186 185 172 158 163 163 165 165 161 164 169 177 168 166 160 166 184 201 209 213 238 193 134 120 101 82 64 20
197 196 197 192 194 195 193 195 186 178 183 185 188 178 175 184 177 183 184 187 187 186 185 182 185 182 184 186 181 175 184 182 182 183 185 187 186 185 184 180 180 184 188 183 188 181 181 185 183 183 183 190 192 200 197 192 189 189 189 171 158 167 168 169 176 172 180 181 175 164 157 166 173 178 220 222 234 204 142 139 120 104 92 57 17
202 195 199 197 194 194 194 181 179 187 187 193 187 181 184 180 183 188 185 188 188 194 195 193 193 189 188 185 185 183 187 186 184 185 190 190 188 189 187 180 180 177 175 184 184 180 177 171 183 184 183 187 191 200 197 194 193 193 188 145 161 161 169 175 180 184 178 175 166 162 163 166 175 179 217 222 245 145 128 126 125 111 144 54 343
196 192 189 185 189 187 181 179 184 188 191 185 179 179 182 185 188 187 187 193 195 201 196 194 193 188 188 188 189 188 188 187 187 192 193 193 192 191 190 184 182 170 180 180 156 166 178 183 188 187 188 181 185 198 198 197 196 197 177 159 159 165 170 180 182 181 173 164 167 170 170 170 179 183 217 218 191 135 112 122 131 137 55 340 84
187 182 186 182 184 183 181 180 182 190 190 182 179 179 183 190 189 190 194 198 203 201 194 194 193 189 191 190 190 190 191 191 194 196 193 192 193 193 189 181 190 187 181 163 181 186 179 192 191 188 189 190 178 195 201 200 198 198 180 155 160 171 175 186 185 175 175 169 173 187 181 176 178 194 214 218 161 124 121 139 140 97 320 248 108
200 197 188 183 169 156 165 180 187 195 183 179 177 181 189 193 194 192 199 206 204 197 193 193 192 191 190 190 192 194 196 196 198 196 194 197 189 182 186 186 189 190 188 187 188 194 182 182 182 190 188 190 182 190 205 203 199 198 181 159 162 175 188 191 187 183 175 179 179 186 196 202 204 205 207 213 160 133 132 143 134 142 228 162 123
191 203 175 161 172 175 183 188 193 187 179 179 178 183 194 196 194 199 209 207 195 187 192 193 190 190 192 193 194 196 198 200 197 196 193 190 187 190 186 188 187 187 187 189 191 193 195 197 195 197 190 190 191 183 204 206 201 198 190 171 180 184 182 178 181 184 183 178 178 178 167 203 208 207 203 210 160 134 134 131 144 208 233 137 127
190 176 169 173 177 188 190 195 191 181 178 178 180 188 195 195 199 210 212 194 188 192 191 191 192 194 194 195 196 198 198 198 194 189 189 194 194 192 192 189 186 187 189 192 190 192 194 195 197 196 200 200 196 195 193 208 203 200 199 188 182 185 177 167 184 183 185 179 177 178 165 200 203 201 207 205 196 163 124 124 196 166 118 124 102
163 164 191 171 179 192 196 192 184 179 180 182 183 192 196 198 206 215 201 188 191 189 189 191 194 195 196 196 196 194 195 194 194 192 192 195 189 190 191 185 187 188 190 192 192 192 191 195 196 199 201 200 195 195 195 203 206 203 203 197 187 179 191 178 180 174 186 174 171 178 175 196 199 199 209 208 165 142 117 152 186 168 119 106 104
246 205 183 180 189 194 197 192 182 182 181 183 185 196 200 205 218 212 186 187 187 190 188 192 195 197 196 196 195 195 196 196 194 190 193 193 191 190 189 190 189 190 191 193 195 192 193 196 197 200 199 197 194 192 199 202 206 205 203 201 195 188 191 179 186 180 174 176 174 172 174 191 199 205 196 156 146 142 142 180 169 146 124 107 112
214 218 195 188 197 197 191 187 188 184 186 187 191 194 199 210 218 190 192 183 187 187 190 196 197 196 197 196 193 195 195 196 194 189 192 193 192 186 191 193 189 194 195 196 197 192 197 199 198 201 172 187 192 193 197 204 203 207 204 204 202 196 198 188 190 187 188 178 187 178 181 193 198 201 166 152 151 164 166 159 149 133 114 113 131
257 248 199 204 208 202 187 197 199 192 191 191 195 195 199 215 206 189 188 184 183 187 192 198 197 197 197 190 194 198 197 197 194 195 197 194 192 190 194 191 191 197 198 198 198 196 200 200 201 198 195 195 190 190 196 197 198 205 207 207 205 200 199 199 185 185 188 185 187 193 191 197 198 163 124 96 102 132 156 147 130 118 123 147 152
221 223 181 189 189 200 209 206 207 204 200 200 199 203 211 212 194 190 184 183 184 189 195 196 197 197 194 192 196 197 196 196 197 198 198 197 196 194 195 194 195 197 198 199 200 198 198 199 201 199 194 190 192 192 191 189 193 197 202 203 203 205 197 197 184 184 190 191 196 194 193 149 129 130 133 136 132 126 111 107 107 127 144 162 166
228 212 186 190 191 206 213 211 217 210 204 206 208 211 214 210 197 185 183 182 189 192 195 196 196 194 195 195 199 198 194 197 199 197 197 200 200 197 197 200 197 197 195 200 199 199 199 198 200 195 188 186 193 192 193 190 192 193 194 191 197 194 190 186 184 178 180 176 169 154 145 121 120 102 105 89 98 117 138 136 137 146 163 174 173
229 217 185 197 200 208 215 213 223 212 205 209 215 217 217 212 203 189 181 185 193 195 195 197 195 195 200 197 200 198 199 199 200 202 207 202 197 197 203 210 210 201 199 196 197 202 202 201 197 191 184 191 195 201 202 194 194 186 182 182 188 191 186 186 180 164 136 121 120 129 125 145 149 150 145 153 148 147 144 147 146 161 167 157 124
239 207 194 209 209 209 213 217 224 206 202 209 216 218 216 211 201 191 184 191 195 192 197 201 197 198 201 196 199 201 201 203 202 204 206 216 219 213 209 206 209 206 207 209 202 204 198 193 196 202 193 192 196 203 196 194 190 187 188 188 188 187 190 176 168 162 148 152 164 166 176 173 172 171 177 173 178 175 170 169 198 198 180 175 186
223 210 217 209 218 215 220 226 226 208 209 211 213 213 211 206 195 190 187 195 190 194 202 206 199 204 200 197 198 201 202 203 204 203 204 209 212 218 219 218 216 206 206 209 210 211 199 197 195 199 204 212 222 143 190 191 190 189 187 188 189 190 192 183 174 152 154 172 177 184 187 186 187 183 190 189 179 181 186 186 198 201 186 193 199